Stations météo

réclame
Mon MeteoGroup
Beauvechain, Belgique (6458): Température de l'air & dewpoint: 13.12.2018 08:00:00 - 19.12.2018 08:00:00 (CET)Beauvechain, Belgique (6458): Vitesse du vent & gusts: 13.12.2018 08:00:00 - 19.12.2018 08:00:00 (CET)Beauvechain, Belgique (6458): Direction du vent: 13.12.2018 08:00:00 - 19.12.2018 08:00:00 (CET)Beauvechain, Belgique (6458): reduced air pressure: 13.12.2018 08:00:00 - 19.12.2018 08:00:00 (CET)Beauvechain, Belgique (6458): visibility: 13.12.2018 08:00:00 - 19.12.2018 08:00:00 (CET)
Date & Time tt [°C] td [°C] ff [km/h] ff [knt] fx [km/h] fx [knt] dd ppp [hPa] vv [km]
19.12.2018 08:00:00 7,3 5,3 18 10 32 18 SSW 1011,5 20
19.12.2018 07:00:00 6,9 5,8 22 12 - - SSW 1011,2 20
19.12.2018 06:00:00 6,9 5,8 18 10 32 18 SSW 1010,7 7
19.12.2018 05:00:00 6,1 4,9 22 12 40 21 SSW 1010,2 10
19.12.2018 04:00:00 6,4 3,7 22 12 - - S 1010,0 20
19.12.2018 03:00:00 6,7 3,3 25 14 36 19 S 1009,8 20
19.12.2018 02:00:00 6,8 0,9 22 12 32 18 S 1010,0 20
19.12.2018 01:00:00 6,6 0,4 22 12 - - S 1010,1 20
19.12.2018 00:00:00 6,7 0,2 29 16 40 21 S 1010,7 20
18.12.2018 23:00:00 6,5 0,3 22 12 36 19 S 1010,6 20
18.12.2018 22:00:00 6,5 0,2 22 12 - - S 1011,7 20
18.12.2018 21:00:00 6,6 0,0 18 10 29 16 SSE 1011,8 20
18.12.2018 20:00:00 6,1 0,0 14 8 25 14 SSE 1012,7 20
18.12.2018 19:00:00 5,4 0,0 14 8 - - SE 1013,6 20
18.12.2018 18:00:00 5,3 0,3 11 6 25 14 SE 1014,6 20
18.12.2018 17:00:00 6,3 0,8 14 8 25 14 SE 1015,6 20
18.12.2018 16:00:00 7,2 1,9 11 6 - - SSE 1016,2 20
18.12.2018 15:00:00 8,1 3,0 18 10 32 18 SSE 1017,0 20
18.12.2018 14:00:00 8,8 4,0 18 10 29 16 SSE 1017,8 20
18.12.2018 13:00:00 8,3 4,6 14 8 - - S 1019,2 20
18.12.2018 12:00:00 7,7 4,2 18 10 29 16 S 1020,2 20
18.12.2018 11:00:00 7,3 4,5 18 10 29 16 S 1021,2 10
18.12.2018 10:00:00 6,5 4,3 18 10 - - S 1021,7 15
18.12.2018 09:00:00 6,5 4,4 16 9 29 16 S 1022,1 10
18.12.2018 08:00:00 6,4 4,6 14 8 25 14 S 1022,5 15
18.12.2018 07:00:00 6,4 4,5 11 6 - - S 1022,7 15
18.12.2018 06:00:00 6,4 4,6 14 8 25 14 S 1023,3 15
18.12.2018 05:00:00 6,3 4,5 14 8 25 14 S 1023,6 19
18.12.2018 04:00:00 6,4 4,6 14 8 - - S 1024,0 17
18.12.2018 03:00:00 6,4 4,7 14 8 29 16 S 1024,4 15
18.12.2018 02:00:00 6,1 4,5 14 8 25 14 SSW 1024,5 14
18.12.2018 01:00:00 5,9 4,2 18 10 - - S 1024,9 15
18.12.2018 00:00:00 5,9 3,9 25 14 32 18 SSW 1025,7 18
17.12.2018 23:00:00 6,4 4,7 22 12 29 16 SSW 1025,2 11
17.12.2018 22:00:00 6,1 4,7 18 10 - - SSW 1025,0 13
17.12.2018 21:00:00 6,1 4,5 18 10 25 14 SSW 1024,7 15
17.12.2018 20:00:00 5,8 4,3 14 8 22 12 SSW 1024,2 15
17.12.2018 19:00:00 6,0 4,5 18 10 - - SSW 1023,8 15
17.12.2018 18:00:00 6,8 4,8 18 10 25 14 SW 1023,2 15
17.12.2018 17:00:00 7,0 5,0 14 8 29 16 SW 1022,7 15
17.12.2018 16:00:00 7,8 4,6 18 10 - - SW 1022,1 20
17.12.2018 15:00:00 7,5 4,8 18 10 29 16 SW 1021,0 20
17.12.2018 14:00:00 8,2 4,8 22 12 29 16 WSW 1020,3 20
17.12.2018 13:00:00 7,3 5,0 18 10 - - WSW 1020,0 20
17.12.2018 12:00:00 6,9 4,6 18 10 32 18 SW 1019,6 20
17.12.2018 11:00:00 6,5 4,3 22 12 36 19 SW 1019,1 20
17.12.2018 10:00:00 6,2 3,7 22 12 - - WSW 1018,1 17
17.12.2018 09:00:00 6,0 4,2 25 14 36 19 SW 1017,1 15
17.12.2018 08:00:00 6,5 4,6 22 12 36 19 SW 1015,7 15
17.12.2018 07:00:00 6,0 4,7 18 10 - - SSW 1014,7 15
17.12.2018 06:00:00 5,6 4,6 22 12 32 18 SSW 1014,0 15
17.12.2018 05:00:00 5,8 4,3 16 9 22 12 S 1013,6 10
17.12.2018 04:00:00 5,1 3,7 18 10 - - S 1013,1 10
17.12.2018 03:00:00 5,0 3,4 14 8 25 14 S 1012,8 20
17.12.2018 02:00:00 4,5 3,1 14 8 22 12 S 1012,7 20
17.12.2018 01:00:00 4,1 2,9 7 4 - - SSE 1013,2 19
17.12.2018 00:00:00 3,2 2,4 14 8 18 10 SSE 1013,2 14
16.12.2018 23:00:00 2,7 2,2 8 4 18 10 S 1013,2 5
16.12.2018 22:00:00 2,8 2,0 14 8 - - SSW 1013,6 10
16.12.2018 21:00:00 2,4 2,1 11 6 18 10 S 1013,0 3,0
16.12.2018 20:00:00 2,1 2,1 11 6 18 10 S 1012,7 0,9
16.12.2018 19:00:00 2,2 1,9 11 6 - - SSW 1012,7 1,0
16.12.2018 18:00:00 2,2 2,0 14 8 18 10 S 1012,2 1,0
16.12.2018 17:00:00 2,4 2,0 11 6 25 14 S 1012,0 3,8
16.12.2018 16:00:00 2,6 2,2 18 10 - - SW 1011,6 4,0
16.12.2018 15:00:00 2,7 2,1 14 8 25 14 SW 1011,6 7
16.12.2018 14:00:00 2,7 2,5 14 8 29 16 SW 1011,2 2,1
16.12.2018 13:00:00 2,5 2,2 18 10 - - SW 1011,3 2,1
16.12.2018 12:00:00 2,2 1,7 16 9 25 14 SW 1011,2 6
16.12.2018 11:00:00 1,9 1,0 14 8 22 12 SW 1011,2 8
16.12.2018 10:00:00 1,4 0,7 14 8 - - SSW 1011,1 5
16.12.2018 09:00:00 1,3 0,9 18 10 25 14 SSW 1010,6 3,4
16.12.2018 08:00:00 1,1 0,6 18 10 25 14 SSW 1010,3 3,3
16.12.2018 07:00:00 0,8 0,0 14 8 - - SSW 1010,2 5
16.12.2018 06:00:00 0,9 -0,2 14 8 22 12 S 1009,8 10
16.12.2018 05:00:00 0,5 -0,5 11 6 22 12 S 1010,2 8
16.12.2018 04:00:00 0,2 -0,8 11 6 - - S 1010,2 7
16.12.2018 03:00:00 0,0 -0,8 11 6 18 10 SSE 1010,7 3,6
16.12.2018 02:00:00 0,0 -1,0 11 6 25 14 SSE 1011,2 4,4
16.12.2018 01:00:00 0,1 -1,4 18 10 - - SE 1011,2 5
16.12.2018 00:00:00 0,0 -1,5 18 10 32 18 SSE 1012,2 3,7
15.12.2018 23:00:00 0,0 -2,4 18 10 36 19 SSE 1011,8 8
15.12.2018 22:00:00 0,0 -3,1 24 13 - - SSE 1013,3 7
15.12.2018 21:00:00 0,3 -5,9 22 12 36 19 SSE 1014,5 17
15.12.2018 20:00:00 -0,1 -5,9 18 10 32 18 SSE 1015,6 18
15.12.2018 19:00:00 -0,4 -5,8 18 10 - - SE 1017,0 18
15.12.2018 18:00:00 -0,4 -5,6 18 10 29 16 SE 1017,8 13
15.12.2018 17:00:00 -0,2 -5,3 18 10 29 16 SE 1019,2 18
15.12.2018 16:00:00 0,4 -5,3 11 6 - - SE 1020,1 17
15.12.2018 15:00:00 0,6 -5,9 14 8 29 16 SSE 1021,3 17
15.12.2018 14:00:00 0,6 -6,2 14 8 25 14 SSE 1022,6 18
15.12.2018 13:00:00 0,3 -6,5 14 8 - - SSE 1023,2 20
15.12.2018 12:00:00 0,2 -6,7 14 8 22 12 SE 1024,0 20
15.12.2018 11:00:00 -0,2 -5,7 11 6 18 10 ESE 1024,7 17
15.12.2018 10:00:00 -0,5 -6,4 11 6 - - SE 1025,0 19
15.12.2018 09:00:00 -0,5 -6,0 7 4 14 8 SE 1025,2 19
15.12.2018 08:00:00 -0,7 -5,9 7 4 14 8 ESE 1025,2 20
15.12.2018 07:00:00 -0,7 -6,4 7 4 - - ESE 1025,0 18
15.12.2018 06:00:00 -0,5 -6,5 7 4 14 8 ESE 1025,2 20
15.12.2018 05:00:00 -0,5 -5,4 7 4 7 4 N 1025,5 18
15.12.2018 04:00:00 -0,4 -5,9 4 2 - - N 1025,7 18
15.12.2018 03:00:00 -0,3 -6,3 4 2 14 8 N 1025,9 20
15.12.2018 02:00:00 -0,2 -6,0 4 2 7 4 N 1026,0 19
15.12.2018 01:00:00 0,1 -6,7 4 2 - - N 1026,0 20
15.12.2018 00:00:00 -0,1 -5,8 4 2 11 6 N 1025,7 20
14.12.2018 23:00:00 -0,2 -5,4 7 4 11 6 E 1025,2 19
14.12.2018 22:00:00 -0,1 -4,8 4 2 - - N 1025,2 19
14.12.2018 21:00:00 -0,1 -3,7 4 2 11 6 N 1025,4 13
14.12.2018 20:00:00 -0,3 -1,3 4 2 7 4 N 1025,5 4,6
14.12.2018 19:00:00 -0,3 -1,3 4 2 - - N 1025,4 4,6
14.12.2018 18:00:00 -0,2 -1,4 4 2 7 4 N 1025,0 5
14.12.2018 17:00:00 -0,2 -1,9 4 2 11 6 - 1025,0 10
14.12.2018 16:00:00 0,1 -2,3 7 4 - - NE 1024,0 13
14.12.2018 15:00:00 0,8 -3,1 14 8 22 12 ENE 1023,2 15
14.12.2018 14:00:00 0,4 -2,8 7 4 14 8 ENE 1023,0 15
14.12.2018 13:00:00 0,3 -2,4 11 6 - - NE 1023,0 10
14.12.2018 12:00:00 0,0 -1,9 7 4 14 8 ENE 1023,2 7
14.12.2018 11:00:00 -0,4 -1,3 8 4 11 6 NNE 1023,6 4,5
14.12.2018 10:00:00 -0,8 -1,2 4 2 - - N 1023,3 3,0
14.12.2018 09:00:00 -1,0 -1,5 4 2 7 4 N 1023,0 4,0
14.12.2018 08:00:00 -0,9 -1,9 5 3 7 4 NNE 1022,3 7
14.12.2018 07:00:00 -0,8 -2,5 8 4 - - NE 1021,7 10
14.12.2018 06:00:00 -1,1 -2,0 7 4 14 8 NE 1021,2 6
14.12.2018 05:00:00 -1,5 -2,2 7 4 11 6 N 1021,1 6
14.12.2018 04:00:00 -2,2 -2,9 4 2 - - - 1021,5 6
14.12.2018 03:00:00 -2,6 -3,7 4 2 7 4 N 1021,7 7
14.12.2018 02:00:00 -2,6 -4,2 7 4 11 6 NE 1021,5 10
14.12.2018 01:00:00 -2,3 -4,2 7 4 - - NE 1021,3 11
14.12.2018 00:00:00 -2,2 -3,9 7 4 11 6 NE 1021,3 11
13.12.2018 23:00:00 -2,2 -3,8 7 4 11 6 ENE 1021,2 11
13.12.2018 22:00:00 -2,0 -3,4 7 4 - - ENE 1021,2 11
13.12.2018 21:00:00 -1,4 -3,2 11 6 14 8 ENE 1020,7 12
13.12.2018 20:00:00 -0,8 -3,1 14 8 18 10 NE 1020,3 14
13.12.2018 19:00:00 -0,3 -3,0 11 6 - - NE 1020,2 17
13.12.2018 18:00:00 0,0 -3,3 11 6 22 12 NE 1019,7 16
13.12.2018 17:00:00 0,4 -3,5 14 8 25 14 ENE 1019,7 20
13.12.2018 16:00:00 1,0 -3,3 18 10 - - ENE 1019,2 20
13.12.2018 15:00:00 1,3 -3,3 18 10 29 16 ENE 1019,1 20
13.12.2018 14:00:00 1,5 -2,6 18 10 32 18 E 1019,2 20
13.12.2018 13:00:00 1,2 -2,4 18 10 - - ENE 1019,3 20
13.12.2018 12:00:00 0,8 -1,3 18 10 32 18 ENE 1019,8 15
13.12.2018 11:00:00 0,2 -1,1 18 10 25 14 ENE 1020,3 10
13.12.2018 10:00:00 -0,5 -1,3 14 8 - - ENE 1020,7 7
13.12.2018 09:00:00 -1,3 -2,0 11 6 14 8 ENE 1020,6 4,5
13.12.2018 08:00:00 -1,9 -2,5 7 4 7 4 NE 1020,7 4,0

tt = Température de l'air
td = dewpoint
ff = Vitesse du vent
fx = gusts
dd = Direction du vent
ppp = reduced air pressure
vv = visibility

stations d'obs. à proximité